Location: Monfort
(47.1967°N, 0.2115°W)
Time: 11:53:56
(UTC+00:00)

FALCON 9 DEB - Pass Details

Date: 24 October 2020
Orbit: 378 x 394 km, 53.0° (Epoch: 27 November)

Event Time Altitude Azimuth Distance (km) Brightness Sun altitude
Rises 17:52:39 0° 203° (SSW) 2,293 7.2 -10.1°
Reaches altitude 10° 17:55:04 10° 185° (S) 1,436 5.9 -10.5°
Maximum altitude 17:57:29 20° 136° (SE) 990 4.6 -11.0°
Enters shadow 17:58:41 16° 107° (ESE) 1,115 4.6 -11.2°
